Погода в Орландо

США     28°32′04″N   81°24′42″W
В апреле 2022 года жителям России запретили посещать сайт meteo.paraplan.net по решению Генеральной прокуратуры. Аудитория сайта уменьшилась в 10 раз. Владельцы сайта не видят смысла в поддержке погодного сервера в таких условиях. Сайт будет закрыт в октябре.
темп.,
°C
ветер,
м/с
пор.,
м/с
влажн.,
%
обл.,
%
осадки,
мм/ч
давл.,
гПа
погр.,
м
30 сентября, пт
пт3023:00+20сз81464100 0.0 1008861
02:00+19зсз6117099 0.1 1007737
05:00+18зсз610730 0.0 1007562
08:00+18зсз5107332 0.0 1009397
11:00+22сз566151 0.0 1010591
14:00+26зсз55520 0.0 10081071
17:00+27зсз45515 0.0 10071304
20:00+23ссз46610 0.0 1008385
1 октября, сб
сб123:00+22зсз24670 0.0 1010181
02:00+21с24710 0.0 1009188
05:00+20с23700 0.0 1010137
08:00+20с23700 0.0 1011118
11:00+26с11510 0.0 1012723
14:00+29з234450 0.0 10111796
17:00+28зюз3252100 0.0 1010987
20:00+26з2257100 0.0 1011359
2 октября, вс
вс223:00+24сз2360100 0.0 1012257
02:00+24зсз236348 0.0 1012234
05:00+22зсз23682 0.0 1012123
08:00+21з24670 0.0 1013125
11:00+27з44510 0.0 10131107
14:00+30зсз45364 0.0 10121886
17:00+30зсз54407 0.0 10111965
20:00+25з57580 0.0 1012410
3 октября, пн
пн323:00+22з37683 0.0 1013292
02:00+21зюз3571100 0.0 1013173
05:00+21зюз25742 0.0 1012149
08:00+21зюз237523 0.0 1013107
11:00+27з345491 0.0 10141011
14:00+30зсз4538100 0.0 10131890
17:00+29сз4437100 0.0 10122015
20:00+25с355670 0.0 1014469
4 октября, вт
вт423:00+23ссв367758 0.4 1015375
02:00+22ссв378275 0.7 1014342
05:00+21с36875 0.3 1014222
08:00+20с36875 0.4 1014225
11:00+25ссв33625 0.0 1015955
14:00+29ссз324256 0.0 10142213
17:00+26св455574 0.0 1013725
20:00+24св566196 0.0 1015669